THT7 KLAX-NTAA

Flight info

Callsign THT7
Flight time 7h 38m
Altitude 38000
Route SUMMR2 FICKY DCT TONYS B454 ARENS DCT BIGBY G575 WIBIG/N0489F400 G575 ORARE DCT ASOKI ASOKI4K
Aircraft B789/H-SDE1E2E3FGHIJ2J3J4J5M1RWXY/LB1D1

Departure

Time 2026-05-07 23:07
Airport Los Angeles International Airport (KLAX)

Arrival

Time 2026-05-08 06:45
Airport Fa'a'ā International Airport (NTAA)
Time Latitude Longitude Altitude Speed Heading
2026-05-07 22:47 33.94260 -118.41132 110 ft 0 kts 85°
2026-05-07 22:57 33.94259 -118.41142 131 ft 4 kts 80°
2026-05-07 22:57 33.94254 -118.41174 125 ft 4 kts 70°
2026-05-07 22:57 33.94242 -118.41201 125 ft 4 kts 42°
2026-05-07 22:58 33.94220 -118.41215 125 ft 3 kts 356°
2026-05-07 22:58 33.94217 -118.41214 125 ft 8 kts 353°
2026-05-07 23:00 33.94219 -118.41215 125 ft 1 kts 353°
2026-05-07 23:01 33.94239 -118.41218 125 ft 4 kts 353°
2026-05-07 23:01 33.94276 -118.41223 131 ft 8 kts 353°
2026-05-07 23:01 33.94350 -118.41234 126 ft 13 kts 353°
2026-05-07 23:01 33.94452 -118.41250 128 ft 15 kts 352°
2026-05-07 23:02 33.94553 -118.41265 128 ft 14 kts 353°
2026-05-07 23:02 33.94651 -118.41280 128 ft 14 kts 353°
2026-05-07 23:02 33.94746 -118.41292 128 ft 13 kts 360°
2026-05-07 23:02 33.94799 -118.41233 127 ft 10 kts 75°
2026-05-07 23:03 33.94808 -118.41150 127 ft 11 kts 82°
2026-05-07 23:03 33.94819 -118.41050 128 ft 13 kts 82°
2026-05-07 23:03 33.94830 -118.40944 127 ft 13 kts 83°
2026-05-07 23:03 33.94841 -118.40834 131 ft 13 kts 83°
2026-05-07 23:04 33.94852 -118.40728 129 ft 13 kts 83°
2026-05-07 23:04 33.94862 -118.40621 126 ft 13 kts 83°
2026-05-07 23:04 33.94873 -118.40513 128 ft 13 kts 83°
2026-05-07 23:04 33.94885 -118.40404 130 ft 13 kts 83°
2026-05-07 23:05 33.94896 -118.40296 130 ft 13 kts 83°
2026-05-07 23:05 33.94907 -118.40187 129 ft 13 kts 83°
2026-05-07 23:05 33.94919 -118.40079 126 ft 13 kts 83°
2026-05-07 23:05 33.94932 -118.39974 131 ft 12 kts 74°
2026-05-07 23:06 33.94974 -118.39922 126 ft 8 kts 15°
2026-05-07 23:06 33.95022 -118.39931 128 ft 7 kts 326°
2026-05-07 23:06 33.95040 -118.39981 126 ft 7 kts 271°
2026-05-07 23:06 33.95031 -118.40058 128 ft 13 kts 263°
2026-05-07 23:07 33.95008 -118.40295 131 ft 56 kts 263°
2026-05-07 23:07 33.94931 -118.41033 129 ft 120 kts 263°
2026-05-07 23:07 33.94808 -118.42256 154 ft 171 kts 263°
2026-05-07 23:07 33.94638 -118.43699 896 ft 176 kts 262°
2026-05-07 23:08 33.94524 -118.45190 1839 ft 186 kts 263°
2026-05-07 23:08 33.94361 -118.46851 2217 ft 215 kts 267°
2026-05-07 23:08 33.94344 -118.48775 2606 ft 241 kts 268°
2026-05-07 23:08 33.94225 -118.50896 3226 ft 260 kts 263°
2026-05-07 23:09 33.93996 -118.53052 4194 ft 265 kts 267°
2026-05-07 23:09 33.93869 -118.55291 5145 ft 272 kts 268°
2026-05-07 23:09 33.93716 -118.57582 6080 ft 279 kts 266°
2026-05-07 23:09 33.93522 -118.59950 6965 ft 286 kts 266°
2026-05-07 23:10 33.93324 -118.62347 7870 ft 290 kts 266°
2026-05-07 23:10 33.93199 -118.63938 8468 ft 293 kts 267°
2026-05-07 23:10 33.93010 -118.66397 9343 ft 298 kts 267°
2026-05-07 23:10 33.92818 -118.68910 10176 ft 304 kts 267°
2026-05-07 23:11 33.92616 -118.71552 10467 ft 331 kts 267°
2026-05-07 23:11 33.92393 -118.74429 10665 ft 359 kts 267°
2026-05-07 23:11 33.92153 -118.77476 11002 ft 378 kts 266°
2026-05-07 23:11 33.91898 -118.80672 11831 ft 383 kts 266°
2026-05-07 23:12 33.91703 -118.83880 12012 ft 391 kts 274°
2026-05-07 23:12 33.91900 -118.87093 12884 ft 385 kts 275°
2026-05-07 23:12 33.91939 -118.90338 13690 ft 391 kts 272°
2026-05-07 23:12 33.91970 -118.93628 14432 ft 395 kts 274°
2026-05-07 23:13 33.92083 -118.96936 15165 ft 398 kts 275°
2026-05-07 23:13 33.92158 -119.00296 15850 ft 405 kts 268°
2026-05-07 23:13 33.91534 -119.03619 16529 ft 412 kts 250°
2026-05-07 23:13 33.90397 -119.06813 17160 ft 418 kts 248°
2026-05-07 23:14 33.89208 -119.10018 17869 ft 422 kts 247°
2026-05-07 23:14 33.88014 -119.13261 18496 ft 426 kts 248°
2026-05-07 23:14 33.86831 -119.16541 19072 ft 430 kts 248°
2026-05-07 23:14 33.85653 -119.19800 19647 ft 433 kts 248°
2026-05-07 23:15 33.84432 -119.23139 20225 ft 436 kts 248°
2026-05-07 23:15 33.83200 -119.26497 20773 ft 440 kts 248°
2026-05-07 23:15 33.81967 -119.29875 21306 ft 444 kts 248°
2026-05-07 23:15 33.80601 -119.33193 21811 ft 449 kts 237°
2026-05-07 23:16 33.78626 -119.36142 22321 ft 453 kts 224°
2026-05-07 23:16 33.76200 -119.38586 22765 ft 458 kts 218°
2026-05-07 23:16 33.73683 -119.40954 23277 ft 461 kts 218°
2026-05-07 23:16 33.71136 -119.43314 23752 ft 464 kts 218°
2026-05-07 23:17 33.68583 -119.45702 24157 ft 467 kts 218°
2026-05-07 23:17 33.66020 -119.48118 24542 ft 470 kts 218°
2026-05-07 23:17 33.63444 -119.50536 24944 ft 472 kts 218°
2026-05-07 23:17 33.60877 -119.52930 25332 ft 475 kts 218°
2026-05-07 23:18 33.58224 -119.55405 25710 ft 478 kts 218°
2026-05-07 23:18 33.55636 -119.57826 26079 ft 481 kts 218°
2026-05-07 23:18 33.52986 -119.60302 26438 ft 483 kts 218°
2026-05-07 23:18 33.50330 -119.62777 26809 ft 485 kts 218°
2026-05-07 23:19 33.47656 -119.65267 27161 ft 488 kts 218°
2026-05-07 23:19 33.44975 -119.67763 27503 ft 490 kts 218°
2026-05-07 23:19 33.42276 -119.70275 27834 ft 493 kts 218°
2026-05-07 23:19 33.39562 -119.72798 28188 ft 495 kts 218°
2026-05-07 23:20 33.36839 -119.75327 28495 ft 498 kts 218°
2026-05-07 23:20 33.34091 -119.77876 28817 ft 500 kts 218°
2026-05-07 23:20 33.31338 -119.80430 29114 ft 502 kts 218°
2026-05-07 23:20 33.28610 -119.82956 29423 ft 504 kts 218°
2026-05-07 23:21 33.25824 -119.85536 29719 ft 507 kts 218°
2026-05-07 23:21 33.23035 -119.88116 29991 ft 509 kts 218°
2026-05-07 23:21 33.20230 -119.90708 30236 ft 511 kts 218°
2026-05-07 23:21 33.17410 -119.93312 30497 ft 513 kts 218°
2026-05-07 23:22 33.14588 -119.95916 30727 ft 515 kts 218°
2026-05-07 23:22 33.11742 -119.98539 30955 ft 516 kts 218°
2026-05-07 23:22 33.08893 -120.01164 31186 ft 518 kts 218°
2026-05-07 23:22 33.06037 -120.03792 31401 ft 520 kts 218°
2026-05-07 23:23 33.03169 -120.06429 31609 ft 521 kts 218°
2026-05-07 23:23 33.00298 -120.09067 31819 ft 523 kts 218°
2026-05-07 23:23 32.97445 -120.11686 32010 ft 524 kts 218°
2026-05-07 23:23 32.94556 -120.14336 32224 ft 526 kts 218°
2026-05-07 23:24 32.91653 -120.16996 32475 ft 526 kts 218°
2026-05-07 23:24 32.88762 -120.19643 32783 ft 525 kts 218°
2026-05-07 23:24 32.85868 -120.22291 33049 ft 524 kts 218°
2026-05-07 23:24 32.82981 -120.24930 33345 ft 523 kts 218°
2026-05-07 23:25 32.80092 -120.27568 33620 ft 523 kts 218°
2026-05-07 23:25 32.77208 -120.30201 33906 ft 522 kts 218°
2026-05-07 23:25 32.74332 -120.32823 34167 ft 522 kts 218°
2026-05-07 23:25 32.71458 -120.35441 34428 ft 520 kts 218°
2026-05-07 23:26 32.68622 -120.38023 34684 ft 519 kts 218°
2026-05-07 23:26 32.65760 -120.40626 34937 ft 518 kts 218°
2026-05-07 23:26 32.62912 -120.43214 35190 ft 516 kts 218°
2026-05-07 23:26 32.60059 -120.45804 35452 ft 515 kts 218°
2026-05-07 23:27 32.54387 -120.50953 35958 ft 512 kts 218°
2026-05-07 23:27 32.51564 -120.53515 36191 ft 511 kts 218°
2026-05-07 23:27 32.48739 -120.56073 36448 ft 510 kts 218°
2026-05-07 23:28 32.45925 -120.58620 36685 ft 508 kts 218°
2026-05-07 23:28 32.43120 -120.61157 36906 ft 507 kts 218°
2026-05-07 23:28 32.40316 -120.63692 37132 ft 506 kts 218°
2026-05-07 23:28 32.37523 -120.66214 37371 ft 505 kts 218°
2026-05-07 23:29 32.34738 -120.68727 37578 ft 504 kts 218°
2026-05-07 23:29 32.31985 -120.71209 37804 ft 503 kts 218°
2026-05-07 23:29 32.29213 -120.73707 38027 ft 501 kts 218°
2026-05-07 23:29 32.26436 -120.76207 38106 ft 503 kts 218°
2026-05-07 23:30 32.20878 -120.81205 38111 ft 500 kts 218°
2026-05-07 23:30 32.15360 -120.86158 38107 ft 497 kts 218°
2026-05-07 23:31 32.09859 -120.91090 38105 ft 497 kts 218°
2026-05-07 23:31 32.04356 -120.96014 38114 ft 496 kts 218°
2026-05-07 23:32 31.98990 -121.00806 38108 ft 479 kts 219°
2026-05-07 23:32 31.93674 -121.05554 38115 ft 481 kts 219°
2026-05-07 23:33 31.88325 -121.10317 38122 ft 482 kts 219°
2026-05-07 23:33 31.82973 -121.15080 38126 ft 482 kts 219°
2026-05-07 23:34 31.77625 -121.19831 38129 ft 482 kts 219°
2026-05-07 23:34 31.72273 -121.24576 38125 ft 482 kts 219°
2026-05-07 23:35 31.66931 -121.29309 38127 ft 481 kts 219°
2026-05-07 23:35 31.61618 -121.34006 38126 ft 481 kts 219°
2026-05-07 23:36 31.56280 -121.38736 38126 ft 480 kts 222°
2026-05-07 23:36 31.51537 -121.44198 38141 ft 479 kts 227°
2026-05-07 23:37 31.46839 -121.49753 38143 ft 480 kts 227°
2026-05-07 23:37 31.42152 -121.55307 38149 ft 479 kts 227°
2026-05-07 23:38 31.37456 -121.60846 38148 ft 479 kts 227°
2026-05-07 23:38 31.32801 -121.66344 38149 ft 478 kts 227°
2026-05-07 23:39 31.28117 -121.71858 38150 ft 478 kts 226°
2026-05-07 23:39 31.23428 -121.77374 38146 ft 478 kts 226°
2026-05-07 23:40 31.18740 -121.82878 38151 ft 477 kts 226°
2026-05-07 23:40 31.14084 -121.88338 38155 ft 477 kts 226°
2026-05-07 23:41 31.09400 -121.93821 38146 ft 477 kts 226°
2026-05-07 23:41 31.04719 -121.99295 38152 ft 477 kts 226°
2026-05-07 23:42 31.00033 -122.04764 38151 ft 476 kts 226°
2026-05-07 23:42 30.95354 -122.10219 38151 ft 476 kts 226°
2026-05-07 23:43 30.90670 -122.15671 38151 ft 476 kts 226°
2026-05-07 23:43 30.86016 -122.21079 38151 ft 476 kts 226°
2026-05-07 23:44 30.81326 -122.26522 38150 ft 477 kts 226°
2026-05-07 23:44 30.76627 -122.31968 38151 ft 477 kts 226°
2026-05-07 23:45 30.71931 -122.37401 38152 ft 476 kts 226°
2026-05-07 23:45 30.67266 -122.42793 38155 ft 477 kts 226°
2026-05-07 23:46 30.62560 -122.48221 38155 ft 477 kts 226°
2026-05-07 23:46 30.57857 -122.53641 38158 ft 476 kts 226°
2026-05-07 23:47 30.53149 -122.59057 38150 ft 477 kts 226°
2026-05-07 23:47 30.48465 -122.64437 38160 ft 477 kts 226°
2026-05-07 23:48 30.43745 -122.69852 38161 ft 477 kts 226°
2026-05-07 23:48 30.39024 -122.75260 38161 ft 477 kts 226°
2026-05-07 23:49 30.34309 -122.80654 38157 ft 477 kts 226°
2026-05-07 23:49 30.29255 -122.85562 38180 ft 479 kts 219°
2026-05-07 23:50 30.24020 -122.90349 38181 ft 480 kts 219°
2026-05-07 23:50 30.18777 -122.95142 38181 ft 480 kts 219°
2026-05-07 23:51 30.13528 -122.99929 38179 ft 481 kts 219°
2026-05-07 23:51 30.08310 -123.04684 38174 ft 481 kts 219°
2026-05-07 23:52 30.03053 -123.09465 38173 ft 482 kts 219°
2026-05-07 23:52 29.97782 -123.14254 38177 ft 482 kts 219°
2026-05-07 23:53 29.92514 -123.19033 38180 ft 482 kts 219°
2026-05-07 23:53 29.87241 -123.23811 38179 ft 482 kts 219°
2026-05-07 23:54 29.81996 -123.28556 38187 ft 482 kts 219°
2026-05-07 23:54 29.76716 -123.33327 38179 ft 483 kts 219°
2026-05-07 23:55 29.71433 -123.38094 38170 ft 483 kts 219°
2026-05-07 23:55 29.66147 -123.42856 38168 ft 483 kts 219°
2026-05-07 23:56 29.60891 -123.47586 38174 ft 483 kts 219°
2026-05-07 23:56 29.55603 -123.52336 38179 ft 483 kts 219°
2026-05-07 23:57 29.50304 -123.57092 38181 ft 483 kts 219°
2026-05-07 23:57 29.45001 -123.61843 38180 ft 484 kts 219°
2026-05-07 23:58 29.39694 -123.66592 38172 ft 484 kts 219°
2026-05-07 23:58 29.34420 -123.71307 38191 ft 485 kts 219°
2026-05-07 23:59 29.29100 -123.76055 38195 ft 484 kts 219°
2026-05-07 23:59 29.23783 -123.80792 38180 ft 484 kts 219°
2026-05-08 00:00 29.18465 -123.85526 38179 ft 484 kts 219°
2026-05-08 00:00 29.13180 -123.90224 38186 ft 485 kts 219°
2026-05-08 00:01 29.07844 -123.94960 38191 ft 485 kts 219°
2026-05-08 00:01 29.02512 -123.99688 38187 ft 485 kts 219°
2026-05-08 00:02 28.97177 -124.04409 38186 ft 485 kts 219°
2026-05-08 00:02 28.91831 -124.09136 38184 ft 486 kts 219°
2026-05-08 00:03 28.86523 -124.13822 38182 ft 486 kts 219°
2026-05-08 00:03 28.81169 -124.18543 38187 ft 486 kts 219°
2026-05-08 00:04 28.75815 -124.23258 38183 ft 486 kts 219°
2026-05-08 00:04 28.70462 -124.27964 38189 ft 486 kts 219°
2026-05-08 00:05 28.65100 -124.32674 38190 ft 487 kts 219°
2026-05-08 00:05 28.59771 -124.37348 38186 ft 487 kts 219°
2026-05-08 00:06 28.54407 -124.42046 38183 ft 487 kts 219°
2026-05-08 00:06 28.49036 -124.46744 38185 ft 487 kts 219°
2026-05-08 00:07 28.43660 -124.51440 38187 ft 488 kts 219°
2026-05-08 00:07 28.38309 -124.56109 38189 ft 488 kts 219°
2026-05-08 00:08 28.32926 -124.60799 38186 ft 488 kts 219°
2026-05-08 00:08 28.27537 -124.65488 38191 ft 488 kts 219°
2026-05-08 00:09 28.22140 -124.70179 38191 ft 488 kts 219°
2026-05-08 00:09 28.16753 -124.74854 38190 ft 488 kts 219°
2026-05-08 00:10 28.11388 -124.79504 38193 ft 489 kts 219°
2026-05-08 00:10 28.05989 -124.84177 38187 ft 488 kts 219°
2026-05-08 00:11 28.00591 -124.88845 38188 ft 489 kts 219°
2026-05-08 00:11 27.95178 -124.93518 38191 ft 489 kts 219°
2026-05-08 00:12 27.89812 -124.98145 38185 ft 488 kts 219°
2026-05-08 00:12 27.84407 -125.02800 38187 ft 488 kts 219°
2026-05-08 00:13 27.79009 -125.07443 38184 ft 488 kts 219°
2026-05-08 00:13 27.73601 -125.12088 38187 ft 489 kts 219°
2026-05-08 00:14 27.68183 -125.16735 38183 ft 489 kts 219°
2026-05-08 00:14 27.62807 -125.21342 38192 ft 488 kts 219°
2026-05-08 00:15 27.57396 -125.25971 38189 ft 488 kts 219°
2026-05-08 00:15 27.51987 -125.30594 38187 ft 487 kts 219°
2026-05-08 00:16 27.46584 -125.35206 38188 ft 487 kts 219°
2026-05-08 00:16 27.41218 -125.39780 38188 ft 488 kts 219°
2026-05-08 00:17 27.35809 -125.44385 38187 ft 488 kts 219°
2026-05-08 00:17 27.30396 -125.48988 38189 ft 488 kts 219°
2026-05-08 00:18 27.24979 -125.53589 38186 ft 488 kts 219°
2026-05-08 00:18 27.19592 -125.58158 38186 ft 488 kts 219°
2026-05-08 00:19 27.14173 -125.62748 38185 ft 488 kts 219°
2026-05-08 00:19 27.08743 -125.67342 38190 ft 488 kts 219°
2026-05-08 00:20 27.03330 -125.71917 38188 ft 488 kts 219°
2026-05-08 00:20 26.97901 -125.76499 38185 ft 489 kts 219°
2026-05-08 00:21 26.92497 -125.81053 38186 ft 490 kts 219°
2026-05-08 00:21 26.87039 -125.85649 38191 ft 491 kts 219°
2026-05-08 00:22 26.81567 -125.90250 38189 ft 492 kts 219°
2026-05-08 00:22 26.76087 -125.94852 38185 ft 492 kts 220°
2026-05-08 00:23 26.70639 -125.99422 38178 ft 493 kts 220°
2026-05-08 00:23 26.65151 -126.04020 38183 ft 493 kts 220°
2026-05-08 00:24 26.59657 -126.08617 38184 ft 493 kts 220°
2026-05-08 00:24 26.54162 -126.13208 38179 ft 493 kts 220°
2026-05-08 00:25 26.48680 -126.17785 38179 ft 492 kts 220°
2026-05-08 00:25 26.43228 -126.22330 38179 ft 493 kts 220°
2026-05-08 00:26 26.37736 -126.26902 38176 ft 492 kts 220°
2026-05-08 00:26 26.32250 -126.31465 38174 ft 491 kts 220°
2026-05-08 00:27 26.26766 -126.36021 38177 ft 492 kts 220°
2026-05-08 00:27 26.21317 -126.40541 38175 ft 492 kts 220°
2026-05-08 00:28 26.15827 -126.45090 38175 ft 491 kts 220°
2026-05-08 00:28 26.10349 -126.49624 38176 ft 491 kts 220°
2026-05-08 00:29 26.04865 -126.54157 38176 ft 491 kts 220°
2026-05-08 00:29 25.99384 -126.58683 38175 ft 491 kts 220°
2026-05-08 00:30 25.93940 -126.63173 38178 ft 490 kts 220°
2026-05-08 00:30 25.88464 -126.67683 38173 ft 490 kts 220°
2026-05-08 00:31 25.82980 -126.72195 38188 ft 491 kts 220°
2026-05-08 00:31 25.77495 -126.76702 38182 ft 491 kts 220°
2026-05-08 00:32 25.72005 -126.81209 38185 ft 491 kts 220°
2026-05-08 00:32 25.66551 -126.85680 38176 ft 491 kts 220°
2026-05-08 00:33 25.61054 -126.90182 38177 ft 491 kts 220°
2026-05-08 00:33 25.55565 -126.94672 38171 ft 491 kts 220°
2026-05-08 00:34 25.50105 -126.99132 38177 ft 490 kts 220°
2026-05-08 00:34 25.44613 -127.03614 38171 ft 491 kts 220°
2026-05-08 00:35 25.39122 -127.08089 38175 ft 491 kts 220°
2026-05-08 00:35 25.34548 -127.11814 38168 ft 491 kts 220°
2026-05-08 00:36 25.29041 -127.16293 38166 ft 491 kts 220°
2026-05-08 00:36 25.22641 -127.21492 38164 ft 491 kts 220°
2026-05-08 00:37 25.17139 -127.25956 38164 ft 491 kts 220°
2026-05-08 00:38 25.09813 -127.31892 38166 ft 490 kts 220°
2026-05-08 00:38 25.04343 -127.36318 38163 ft 490 kts 220°
2026-05-08 00:39 24.98841 -127.40766 38164 ft 490 kts 220°
2026-05-08 00:39 24.93331 -127.45214 38162 ft 490 kts 220°
2026-05-08 00:40 24.87874 -127.49615 38162 ft 490 kts 220°
2026-05-08 00:40 24.82373 -127.54046 38162 ft 489 kts 220°
2026-05-08 00:41 24.76880 -127.58465 38165 ft 489 kts 220°
2026-05-08 00:41 24.71387 -127.62880 38165 ft 489 kts 220°
2026-05-08 00:42 24.65931 -127.67261 38164 ft 488 kts 220°
2026-05-08 00:42 24.60440 -127.71665 38158 ft 489 kts 220°
2026-05-08 00:43 24.54950 -127.76062 38155 ft 489 kts 220°
2026-05-08 00:43 24.49450 -127.80464 38156 ft 489 kts 220°
2026-05-08 00:44 24.43956 -127.84855 38153 ft 488 kts 220°
2026-05-08 00:44 24.38504 -127.89207 38152 ft 488 kts 220°
2026-05-08 00:45 24.33018 -127.93582 38148 ft 487 kts 220°
2026-05-08 00:45 24.27551 -127.97937 38151 ft 485 kts 220°
2026-05-08 00:46 24.22085 -128.02288 38162 ft 485 kts 220°
2026-05-08 00:46 24.16654 -128.06605 38153 ft 486 kts 220°
2026-05-08 00:47 24.11184 -128.10948 38154 ft 486 kts 220°
2026-05-08 00:47 24.05713 -128.15289 38151 ft 485 kts 220°
2026-05-08 00:48 24.00243 -128.19623 38146 ft 485 kts 220°
2026-05-08 00:48 23.94776 -128.23950 38146 ft 485 kts 220°
2026-05-08 00:49 23.89339 -128.28249 38148 ft 485 kts 219°
2026-05-08 00:49 23.83871 -128.32568 38143 ft 486 kts 219°
2026-05-08 00:50 23.78396 -128.36887 38145 ft 485 kts 219°
2026-05-08 00:50 23.72922 -128.41202 38140 ft 485 kts 219°
2026-05-08 00:51 23.67446 -128.45513 38141 ft 485 kts 219°
2026-05-08 00:51 23.62012 -128.49787 38141 ft 485 kts 219°
2026-05-08 00:52 23.56537 -128.54088 38137 ft 485 kts 219°
2026-05-08 00:52 23.51061 -128.58387 38138 ft 485 kts 219°
2026-05-08 00:53 23.45586 -128.62678 38133 ft 485 kts 219°
2026-05-08 00:53 23.40140 -128.66945 38131 ft 485 kts 219°
2026-05-08 00:54 23.34658 -128.71233 38134 ft 485 kts 219°
2026-05-08 00:54 23.29180 -128.75515 38133 ft 485 kts 219°
2026-05-08 00:55 23.23701 -128.79792 38144 ft 485 kts 219°
2026-05-08 00:55 23.18224 -128.84065 38138 ft 485 kts 219°
2026-05-08 00:56 23.12776 -128.88309 38136 ft 485 kts 219°
2026-05-08 00:56 23.07290 -128.92580 38141 ft 485 kts 219°
2026-05-08 00:57 23.01808 -128.96843 38128 ft 485 kts 219°
2026-05-08 00:57 22.96323 -129.01103 38126 ft 484 kts 219°
2026-05-08 00:58 22.90887 -129.05322 38123 ft 484 kts 219°
2026-05-08 00:58 22.85410 -129.09567 38125 ft 483 kts 219°
2026-05-08 00:59 22.79944 -129.13800 38123 ft 483 kts 219°
2026-05-08 00:59 22.74473 -129.18033 38127 ft 482 kts 219°
2026-05-08 01:00 22.69056 -129.22220 38129 ft 482 kts 219°
2026-05-08 01:00 22.63589 -129.26441 38123 ft 482 kts 219°
2026-05-08 01:01 22.57721 -129.29954 38146 ft 489 kts 202°
2026-05-08 01:01 22.51322 -129.32484 38137 ft 489 kts 204°
2026-05-08 01:02 22.44972 -129.34987 38137 ft 489 kts 204°
2026-05-08 01:02 22.38582 -129.37505 38136 ft 488 kts 204°
2026-05-08 01:03 22.32199 -129.40020 38120 ft 488 kts 204°
2026-05-08 01:03 22.25821 -129.42528 38123 ft 488 kts 204°
2026-05-08 01:04 22.19498 -129.45013 38126 ft 487 kts 204°
2026-05-08 01:04 22.13130 -129.47513 38119 ft 487 kts 204°
2026-05-08 01:05 22.06771 -129.50008 38118 ft 486 kts 204°
2026-05-08 01:05 22.00420 -129.52497 38112 ft 486 kts 204°
2026-05-08 01:06 21.94064 -129.54985 38112 ft 485 kts 204°
2026-05-08 01:06 21.87774 -129.57446 38108 ft 484 kts 204°
2026-05-08 01:07 21.81447 -129.59918 38109 ft 484 kts 204°
2026-05-08 01:07 21.75127 -129.62385 38108 ft 483 kts 204°
2026-05-08 01:08 21.68813 -129.64848 38106 ft 482 kts 205°
2026-05-08 01:08 21.62497 -129.67310 38100 ft 483 kts 205°
2026-05-08 01:09 21.56234 -129.69747 38100 ft 482 kts 205°
2026-05-08 01:09 21.49930 -129.72200 38097 ft 481 kts 205°
2026-05-08 01:10 21.43640 -129.74644 38099 ft 481 kts 205°
2026-05-08 01:10 21.37347 -129.77087 38098 ft 480 kts 205°
2026-05-08 01:11 21.31122 -129.79502 38101 ft 480 kts 205°
2026-05-08 01:11 21.24850 -129.81932 38108 ft 479 kts 206°
2026-05-08 01:12 21.18584 -129.84358 38107 ft 479 kts 206°
2026-05-08 01:12 21.12309 -129.86786 38108 ft 479 kts 206°
2026-05-08 01:13 21.06093 -129.89188 38099 ft 478 kts 206°
2026-05-08 01:13 20.99841 -129.91602 38093 ft 478 kts 206°
2026-05-08 01:14 20.93594 -129.94012 38095 ft 477 kts 206°
2026-05-08 01:14 20.87348 -129.96420 38090 ft 477 kts 207°
2026-05-08 01:15 20.81158 -129.98804 38091 ft 476 kts 207°
2026-05-08 01:15 20.74925 -130.01202 38085 ft 476 kts 207°
2026-05-08 01:16 20.68691 -130.03598 38088 ft 476 kts 207°
2026-05-08 01:16 20.62461 -130.05992 38085 ft 476 kts 207°
2026-05-08 01:17 20.56226 -130.08384 38083 ft 476 kts 207°
2026-05-08 01:17 20.50032 -130.10760 38081 ft 476 kts 207°
2026-05-08 01:18 20.43796 -130.13149 38086 ft 477 kts 207°
2026-05-08 01:18 20.37544 -130.15542 38091 ft 477 kts 207°
2026-05-08 01:19 20.31331 -130.17918 38080 ft 477 kts 207°
2026-05-08 01:19 20.25081 -130.20306 38079 ft 476 kts 208°
2026-05-08 01:20 20.18845 -130.22687 38072 ft 476 kts 208°
2026-05-08 01:20 20.12612 -130.25065 38069 ft 476 kts 208°
2026-05-08 01:21 20.06406 -130.27431 38071 ft 477 kts 208°
2026-05-08 01:21 20.00149 -130.29813 38066 ft 478 kts 208°
2026-05-08 01:22 19.93893 -130.32193 38066 ft 478 kts 208°
2026-05-08 01:22 19.87645 -130.34569 38064 ft 477 kts 208°
2026-05-08 01:23 19.81388 -130.36946 38065 ft 477 kts 208°
2026-05-08 01:23 19.75190 -130.39298 38066 ft 476 kts 208°
2026-05-08 01:24 19.68941 -130.41668 38066 ft 477 kts 208°
2026-05-08 01:24 19.62688 -130.44037 38063 ft 477 kts 207°
2026-05-08 01:25 19.56441 -130.46402 38059 ft 477 kts 207°
2026-05-08 01:25 19.50228 -130.48753 38055 ft 477 kts 207°
2026-05-08 01:26 19.43984 -130.51112 38058 ft 476 kts 207°
2026-05-08 01:26 19.37743 -130.53470 38057 ft 476 kts 207°
2026-05-08 01:27 19.31500 -130.55826 38062 ft 476 kts 207°
2026-05-08 01:27 19.25255 -130.58181 38055 ft 476 kts 207°
2026-05-08 01:28 19.19051 -130.60518 38055 ft 477 kts 207°
2026-05-08 01:28 19.12801 -130.62870 38055 ft 477 kts 207°
2026-05-08 01:29 19.06553 -130.65221 38052 ft 477 kts 207°
2026-05-08 01:29 19.00307 -130.67568 38057 ft 477 kts 207°
2026-05-08 01:30 18.94097 -130.69900 38049 ft 476 kts 207°
2026-05-08 01:30 18.87849 -130.72245 38044 ft 477 kts 207°
2026-05-08 01:31 18.81595 -130.74590 38046 ft 477 kts 207°
2026-05-08 01:31 18.75342 -130.76932 38043 ft 477 kts 207°
2026-05-08 01:32 18.69137 -130.79256 38045 ft 476 kts 207°
2026-05-08 01:32 18.62886 -130.81594 38048 ft 477 kts 207°
2026-05-08 01:33 18.56635 -130.83931 38045 ft 477 kts 207°
2026-05-08 01:33 18.50366 -130.86272 38048 ft 478 kts 207°
2026-05-08 01:34 18.44102 -130.88610 38039 ft 477 kts 207°
2026-05-08 01:34 18.37886 -130.90927 38037 ft 477 kts 207°
2026-05-08 01:35 18.31632 -130.93258 38034 ft 477 kts 207°
2026-05-08 01:35 18.25379 -130.95586 38031 ft 477 kts 207°
2026-05-08 01:36 18.19128 -130.97911 38033 ft 476 kts 207°
2026-05-08 01:36 18.12929 -131.00217 38034 ft 476 kts 207°
2026-05-08 01:37 18.06685 -131.02536 38035 ft 476 kts 207°
2026-05-08 01:37 18.00439 -131.04855 38032 ft 476 kts 207°
2026-05-08 01:38 17.94195 -131.07170 38031 ft 476 kts 207°
2026-05-08 01:38 17.87995 -131.09469 38028 ft 475 kts 207°
2026-05-08 01:39 17.81765 -131.11776 38031 ft 475 kts 207°
2026-05-08 01:39 17.75535 -131.14082 38029 ft 474 kts 208°
2026-05-08 01:40 17.69308 -131.16385 38027 ft 475 kts 208°
2026-05-08 01:40 17.63121 -131.18671 38030 ft 475 kts 208°
2026-05-08 01:41 17.56890 -131.20973 38026 ft 475 kts 208°
2026-05-08 01:41 17.50659 -131.23271 38020 ft 474 kts 208°
2026-05-08 01:42 17.44440 -131.25565 38026 ft 474 kts 208°
2026-05-08 01:42 17.38265 -131.27840 38019 ft 473 kts 208°
2026-05-08 01:43 17.32050 -131.30128 38016 ft 473 kts 208°
2026-05-08 01:43 17.25839 -131.32415 38017 ft 474 kts 208°
2026-05-08 01:44 17.19617 -131.34702 38018 ft 474 kts 208°
2026-05-08 01:44 17.13393 -131.36989 38015 ft 474 kts 208°
2026-05-08 01:45 17.07221 -131.39255 38014 ft 474 kts 208°
2026-05-08 01:45 17.00996 -131.41539 38007 ft 474 kts 208°
2026-05-08 01:46 16.94760 -131.43826 38010 ft 476 kts 208°
2026-05-08 01:46 16.88515 -131.46113 38013 ft 475 kts 207°
2026-05-08 01:47 16.82309 -131.48386 38009 ft 476 kts 207°
2026-05-08 01:47 16.76058 -131.50672 38010 ft 476 kts 207°
2026-05-08 01:48 16.66693 -131.54096 38003 ft 476 kts 207°
2026-05-08 01:48 16.60442 -131.56380 38002 ft 476 kts 207°
2026-05-08 01:49 16.54192 -131.58660 38000 ft 476 kts 207°
2026-05-08 01:49 16.47980 -131.60926 37995 ft 476 kts 207°
2026-05-08 01:50 16.41726 -131.63206 37995 ft 476 kts 207°
2026-05-08 01:50 16.35473 -131.65483 37996 ft 476 kts 207°
2026-05-08 01:51 16.29230 -131.67756 37990 ft 475 kts 207°
2026-05-08 01:51 16.23035 -131.70010 37988 ft 475 kts 207°
2026-05-08 01:52 16.16790 -131.72280 37990 ft 475 kts 207°
2026-05-08 01:52 16.10549 -131.74547 37990 ft 475 kts 207°
2026-05-08 01:53 16.04304 -131.76814 37988 ft 475 kts 207°
2026-05-08 01:53 15.98110 -131.79061 37989 ft 474 kts 207°
2026-05-08 01:54 15.91877 -131.81321 37982 ft 474 kts 207°
2026-05-08 01:54 15.85650 -131.83577 37984 ft 475 kts 207°
2026-05-08 01:55 15.79400 -131.85840 37982 ft 476 kts 207°
2026-05-08 01:55 15.73190 -131.88087 37981 ft 476 kts 207°
2026-05-08 01:56 15.66938 -131.90347 37982 ft 477 kts 207°
2026-05-08 01:56 15.60667 -131.92614 37982 ft 478 kts 207°
2026-05-08 01:57 15.54386 -131.94881 37980 ft 478 kts 207°
2026-05-08 01:57 15.48119 -131.97143 37975 ft 477 kts 207°
2026-05-08 01:58 15.41896 -131.99388 37972 ft 477 kts 207°
2026-05-08 01:58 15.35634 -132.01645 37974 ft 476 kts 207°
2026-05-08 01:59 15.29370 -132.03901 37969 ft 477 kts 206°
2026-05-08 01:59 15.23100 -132.06158 37968 ft 477 kts 206°
2026-05-08 02:00 15.16868 -132.08400 37969 ft 478 kts 206°
2026-05-08 02:00 15.10592 -132.10656 37966 ft 478 kts 206°
2026-05-08 02:01 15.04303 -132.12917 37969 ft 478 kts 206°
2026-05-08 02:01 14.98016 -132.15173 37965 ft 479 kts 206°
2026-05-08 02:02 14.91724 -132.17432 37961 ft 479 kts 206°
2026-05-08 02:02 14.85473 -132.19674 37973 ft 479 kts 205°
2026-05-08 02:03 14.79165 -132.21934 37962 ft 480 kts 205°
2026-05-08 02:03 14.72854 -132.24195 37977 ft 480 kts 205°
2026-05-08 02:04 14.66539 -132.26455 37972 ft 480 kts 205°
2026-05-08 02:04 14.60255 -132.28704 37976 ft 481 kts 205°
2026-05-08 02:05 14.53937 -132.30995 37965 ft 479 kts 210°
2026-05-08 02:05 14.48081 -132.34142 37974 ft 475 kts 214°
2026-05-08 02:06 14.42280 -132.37411 37976 ft 475 kts 214°
2026-05-08 02:06 14.36512 -132.40640 37961 ft 475 kts 214°
2026-05-08 02:07 14.30712 -132.43896 37968 ft 474 kts 214°
2026-05-08 02:07 14.24913 -132.47143 37960 ft 474 kts 214°
2026-05-08 02:08 14.19115 -132.50391 37959 ft 474 kts 214°
2026-05-08 02:08 14.13324 -132.53632 37947 ft 474 kts 214°
2026-05-08 02:09 14.07570 -132.56851 37948 ft 474 kts 214°
2026-05-08 02:09 14.01777 -132.60089 37950 ft 474 kts 214°
2026-05-08 02:10 13.95976 -132.63330 37941 ft 474 kts 214°
2026-05-08 02:10 13.90187 -132.66563 37945 ft 473 kts 214°
2026-05-08 02:11 13.84406 -132.69789 37943 ft 472 kts 214°
2026-05-08 02:11 13.78670 -132.72989 37946 ft 472 kts 214°
2026-05-08 02:12 13.72898 -132.76206 37942 ft 472 kts 214°
2026-05-08 02:12 13.67124 -132.79423 37946 ft 473 kts 214°
2026-05-08 02:13 13.61334 -132.82647 37944 ft 474 kts 214°
2026-05-08 02:13 13.55577 -132.85851 37939 ft 474 kts 214°
2026-05-08 02:14 13.49772 -132.89080 37939 ft 474 kts 214°
2026-05-08 02:14 13.43963 -132.92308 37942 ft 475 kts 214°
2026-05-08 02:15 13.38150 -132.95538 37942 ft 476 kts 214°
2026-05-08 02:15 13.32373 -132.98745 37939 ft 475 kts 214°
2026-05-08 02:16 13.26563 -133.01971 37933 ft 475 kts 214°
2026-05-08 02:16 13.20739 -133.05201 37935 ft 475 kts 214°
2026-05-08 02:17 13.14923 -133.08425 37932 ft 476 kts 214°
2026-05-08 02:17 13.09126 -133.11637 37935 ft 477 kts 214°
2026-05-08 02:18 13.03276 -133.14876 37930 ft 477 kts 214°
2026-05-08 02:18 12.97441 -133.18105 37933 ft 476 kts 214°
2026-05-08 02:19 12.91608 -133.21332 37934 ft 476 kts 214°
2026-05-08 02:19 12.85816 -133.24534 37930 ft 477 kts 214°
2026-05-08 02:20 12.79977 -133.27761 37926 ft 477 kts 214°
2026-05-08 02:20 12.74139 -133.30985 37929 ft 477 kts 214°
2026-05-08 02:21 12.68297 -133.34210 37927 ft 477 kts 213°
2026-05-08 02:21 12.62491 -133.37413 37924 ft 478 kts 213°
2026-05-08 02:22 12.56642 -133.40638 37924 ft 477 kts 213°
2026-05-08 02:22 12.50790 -133.43863 37928 ft 478 kts 213°
2026-05-08 02:23 12.44931 -133.47091 37926 ft 479 kts 213°
2026-05-08 02:23 12.39055 -133.50326 37921 ft 480 kts 212°
2026-05-08 02:24 12.33212 -133.53541 37926 ft 481 kts 212°
2026-05-08 02:24 12.27309 -133.56787 37917 ft 482 kts 212°
2026-05-08 02:25 12.21405 -133.60033 37920 ft 483 kts 212°
2026-05-08 02:25 12.15478 -133.63289 37919 ft 484 kts 212°
2026-05-08 02:26 12.09582 -133.66527 37919 ft 485 kts 212°
2026-05-08 02:26 12.03639 -133.69789 37921 ft 485 kts 212°
2026-05-08 02:27 11.97698 -133.73048 37917 ft 485 kts 212°
2026-05-08 02:27 11.91750 -133.76310 37918 ft 485 kts 212°
2026-05-08 02:28 11.85840 -133.79549 37915 ft 485 kts 212°
2026-05-08 02:28 11.79889 -133.82808 37917 ft 485 kts 212°
2026-05-08 02:29 11.73945 -133.86063 37912 ft 486 kts 212°
2026-05-08 02:29 11.67978 -133.89328 37913 ft 486 kts 211°
2026-05-08 02:30 11.62015 -133.92590 37916 ft 487 kts 211°
2026-05-08 02:30 11.56052 -133.95849 37910 ft 486 kts 211°
2026-05-08 02:31 11.50121 -133.99090 37912 ft 487 kts 211°
2026-05-08 02:31 11.44136 -134.02358 37908 ft 487 kts 211°
2026-05-08 02:32 11.38156 -134.05623 37912 ft 487 kts 211°
2026-05-08 02:32 11.32180 -134.08884 37912 ft 488 kts 211°
2026-05-08 02:33 11.26250 -134.12118 37919 ft 487 kts 211°
2026-05-08 02:33 11.20273 -134.15377 37913 ft 486 kts 211°
2026-05-08 02:34 11.14319 -134.18620 37913 ft 485 kts 211°
2026-05-08 02:34 11.08372 -134.21859 37906 ft 484 kts 211°
2026-05-08 02:35 11.02437 -134.25090 37906 ft 485 kts 211°
2026-05-08 02:35 10.96525 -134.28307 37907 ft 485 kts 211°
2026-05-08 02:36 10.90568 -134.31547 37907 ft 486 kts 211°
2026-05-08 02:36 10.84606 -134.34788 37911 ft 486 kts 211°
2026-05-08 02:37 10.78637 -134.38031 37909 ft 487 kts 211°
2026-05-08 02:37 10.72650 -134.41282 37918 ft 487 kts 211°
2026-05-08 02:38 10.66714 -134.44505 37921 ft 487 kts 211°
2026-05-08 02:38 10.60733 -134.47750 37916 ft 487 kts 211°
2026-05-08 02:39 10.54756 -134.50991 37910 ft 486 kts 211°
2026-05-08 02:39 10.48795 -134.54224 37914 ft 486 kts 211°
2026-05-08 02:40 10.42874 -134.57432 37910 ft 486 kts 211°
2026-05-08 02:40 10.36968 -134.60632 37914 ft 486 kts 211°
2026-05-08 02:41 10.30989 -134.63868 37914 ft 486 kts 211°
2026-05-08 02:41 10.25016 -134.67101 37912 ft 487 kts 211°
2026-05-08 02:42 10.19073 -134.70316 37916 ft 488 kts 211°
2026-05-08 02:42 10.13082 -134.73555 37913 ft 488 kts 211°
2026-05-08 02:43 10.07084 -134.76797 37910 ft 488 kts 211°
2026-05-08 02:43 10.01077 -134.80043 37909 ft 489 kts 211°
2026-05-08 02:44 9.95110 -134.83265 37898 ft 489 kts 211°
2026-05-08 02:44 9.89104 -134.86507 37898 ft 489 kts 211°
2026-05-08 02:45 9.83081 -134.89758 37896 ft 490 kts 211°
2026-05-08 02:45 9.77060 -134.93005 37901 ft 490 kts 211°
2026-05-08 02:46 9.71031 -134.96256 37899 ft 491 kts 211°
2026-05-08 02:46 9.65034 -134.99487 37898 ft 491 kts 211°
2026-05-08 02:47 9.58998 -135.02739 37901 ft 492 kts 211°
2026-05-08 02:47 9.52955 -135.05993 37895 ft 491 kts 211°
2026-05-08 02:48 9.46917 -135.09243 37895 ft 491 kts 211°
2026-05-08 02:48 9.40881 -135.12491 37894 ft 491 kts 211°
2026-05-08 02:49 9.34892 -135.15712 37896 ft 490 kts 211°
2026-05-08 02:49 9.28862 -135.18954 37899 ft 491 kts 211°
2026-05-08 02:50 9.22834 -135.22193 37897 ft 491 kts 211°
2026-05-08 02:50 9.16838 -135.25415 37899 ft 491 kts 211°
2026-05-08 02:51 9.10803 -135.28655 37902 ft 491 kts 211°
2026-05-08 02:51 9.04756 -135.31901 37901 ft 492 kts 211°
2026-05-08 02:52 8.98716 -135.35142 37896 ft 492 kts 211°
2026-05-08 02:52 8.92674 -135.38383 37893 ft 491 kts 211°
2026-05-08 02:53 8.86680 -135.41597 37894 ft 491 kts 211°
2026-05-08 02:53 8.80639 -135.44835 37897 ft 491 kts 211°
2026-05-08 02:54 8.74609 -135.48065 37898 ft 490 kts 211°
2026-05-08 02:54 8.68584 -135.51293 37895 ft 490 kts 211°
2026-05-08 02:55 8.59570 -135.56118 37895 ft 492 kts 211°
2026-05-08 02:56 8.53523 -135.59354 37894 ft 492 kts 210°
2026-05-08 02:56 8.47472 -135.62591 37892 ft 493 kts 210°
2026-05-08 02:57 8.41412 -135.65831 37890 ft 493 kts 210°
2026-05-08 02:57 8.35349 -135.69072 37894 ft 493 kts 210°
2026-05-08 02:58 8.29290 -135.72309 37888 ft 493 kts 210°
2026-05-08 02:58 8.23261 -135.75529 37889 ft 494 kts 210°
2026-05-08 02:59 8.17186 -135.78773 37892 ft 493 kts 210°
2026-05-08 02:59 8.11121 -135.82011 37893 ft 493 kts 210°
2026-05-08 03:00 8.05048 -135.85251 37892 ft 494 kts 210°
2026-05-08 03:00 7.99017 -135.88468 37890 ft 494 kts 210°
2026-05-08 03:01 7.92927 -135.91716 37889 ft 495 kts 210°
2026-05-08 03:01 7.86837 -135.94962 37888 ft 495 kts 210°
2026-05-08 03:02 7.80736 -135.98213 37890 ft 496 kts 210°
2026-05-08 03:02 7.74669 -136.01445 37901 ft 497 kts 209°
2026-05-08 03:03 7.68540 -136.04708 37897 ft 499 kts 209°
2026-05-08 03:03 7.62397 -136.07979 37900 ft 501 kts 209°
2026-05-08 03:04 7.56224 -136.11264 37900 ft 502 kts 209°
2026-05-08 03:04 7.50072 -136.14537 37899 ft 504 kts 208°
2026-05-08 03:05 7.43861 -136.17839 37896 ft 505 kts 208°
2026-05-08 03:05 7.37638 -136.21148 37895 ft 506 kts 208°
2026-05-08 03:06 7.31419 -136.24453 37899 ft 507 kts 208°
2026-05-08 03:06 7.25174 -136.27771 37896 ft 507 kts 208°
2026-05-08 03:07 7.19988 -136.30526 37893 ft 507 kts 208°
2026-05-08 03:07 7.12737 -136.34376 37893 ft 507 kts 208°
2026-05-08 03:08 7.06495 -136.37689 37892 ft 507 kts 208°
2026-05-08 03:08 7.01311 -136.40440 37892 ft 507 kts 207°
2026-05-08 03:09 6.95065 -136.43753 37889 ft 507 kts 208°
2026-05-08 03:09 6.87816 -136.47597 37893 ft 507 kts 208°
2026-05-08 03:10 6.82586 -136.50370 37897 ft 507 kts 208°
2026-05-08 03:10 6.76392 -136.53652 37895 ft 507 kts 208°
2026-05-08 03:11 6.70146 -136.56962 37887 ft 507 kts 208°
2026-05-08 03:11 6.63908 -136.60266 37888 ft 506 kts 208°
2026-05-08 03:12 6.57677 -136.63565 37890 ft 506 kts 208°
2026-05-08 03:12 6.51497 -136.66836 37887 ft 505 kts 207°
2026-05-08 03:13 6.45275 -136.70129 37888 ft 505 kts 207°
2026-05-08 03:13 6.39065 -136.73415 37889 ft 504 kts 207°
2026-05-08 03:14 6.32850 -136.76702 37889 ft 504 kts 207°
2026-05-08 03:14 6.26648 -136.79982 37884 ft 504 kts 207°
2026-05-08 03:15 6.20486 -136.83239 37887 ft 504 kts 208°
2026-05-08 03:15 6.14282 -136.86518 37888 ft 504 kts 208°
2026-05-08 03:16 6.08070 -136.89800 37887 ft 504 kts 208°
2026-05-08 03:16 6.01855 -136.93083 37890 ft 505 kts 208°
2026-05-08 03:17 5.95678 -136.96345 37885 ft 505 kts 208°
2026-05-08 03:17 5.89437 -136.99640 37885 ft 508 kts 208°
2026-05-08 03:18 5.83176 -137.02945 37888 ft 509 kts 208°
2026-05-08 03:18 5.76902 -137.06255 37888 ft 509 kts 208°
2026-05-08 03:19 5.70636 -137.09561 37887 ft 510 kts 208°
2026-05-08 03:19 5.64394 -137.12853 37887 ft 510 kts 208°
2026-05-08 03:20 5.58109 -137.16167 37884 ft 510 kts 208°
2026-05-08 03:20 5.51828 -137.19478 37882 ft 510 kts 208°
2026-05-08 03:21 5.45549 -137.22787 37883 ft 510 kts 208°
2026-05-08 03:21 5.39312 -137.26074 37884 ft 509 kts 208°
2026-05-08 03:22 5.33046 -137.29374 37885 ft 508 kts 208°
2026-05-08 03:22 5.26785 -137.32672 37883 ft 508 kts 208°
2026-05-08 03:23 5.20526 -137.35967 37885 ft 508 kts 209°
2026-05-08 03:23 5.14270 -137.39261 37882 ft 508 kts 209°
2026-05-08 03:24 5.08058 -137.42530 37882 ft 508 kts 209°
2026-05-08 03:24 5.01799 -137.45823 37882 ft 508 kts 209°
2026-05-08 03:25 4.95534 -137.49119 37882 ft 509 kts 210°
2026-05-08 03:25 4.89263 -137.52418 37883 ft 508 kts 210°
2026-05-08 03:26 4.83043 -137.55689 37884 ft 508 kts 210°
2026-05-08 03:26 4.76788 -137.58977 37883 ft 508 kts 210°
2026-05-08 03:27 4.70531 -137.62266 37887 ft 507 kts 209°
2026-05-08 03:27 4.64291 -137.65545 37883 ft 506 kts 209°
2026-05-08 03:28 4.58107 -137.68794 37884 ft 505 kts 209°
2026-05-08 03:28 4.51880 -137.72065 37885 ft 505 kts 209°
2026-05-08 03:29 4.45659 -137.75332 37891 ft 505 kts 208°
2026-05-08 03:29 4.39444 -137.78596 37892 ft 504 kts 208°
2026-05-08 03:30 4.30186 -137.83456 37890 ft 503 kts 208°
2026-05-08 03:31 4.17801 -137.89956 37882 ft 502 kts 208°
2026-05-08 03:32 4.08507 -137.94832 37879 ft 503 kts 209°
2026-05-08 03:32 4.02341 -137.98066 37882 ft 504 kts 209°
2026-05-08 03:33 3.96117 -138.01330 37887 ft 506 kts 209°
2026-05-08 03:33 3.89885 -138.04598 37887 ft 505 kts 209°
2026-05-08 03:34 3.83650 -138.07867 37887 ft 506 kts 209°
2026-05-08 03:34 3.77425 -138.11130 37885 ft 505 kts 209°
2026-05-08 03:35 3.71247 -138.14368 37891 ft 505 kts 209°
2026-05-08 03:35 3.65027 -138.17627 37892 ft 504 kts 209°
2026-05-08 03:36 3.58826 -138.20876 37892 ft 503 kts 209°
2026-05-08 03:36 3.52629 -138.24123 37892 ft 503 kts 209°
2026-05-08 03:37 3.46454 -138.27317 37891 ft 502 kts 208°
2026-05-08 03:37 3.40198 -138.30402 37890 ft 501 kts 208°
2026-05-08 03:38 3.33978 -138.33559 37894 ft 501 kts 208°
2026-05-08 03:38 3.27737 -138.36674 37892 ft 501 kts 208°
2026-05-08 03:39 3.21542 -138.39794 37892 ft 502 kts 208°
2026-05-08 03:39 3.15292 -138.42927 37894 ft 503 kts 208°
2026-05-08 03:40 3.09035 -138.46070 37895 ft 503 kts 208°
2026-05-08 03:40 3.02777 -138.49209 37896 ft 503 kts 208°
2026-05-08 03:41 2.96560 -138.52329 37897 ft 504 kts 208°
2026-05-08 03:41 2.90289 -138.55476 37895 ft 504 kts 208°
2026-05-08 03:42 2.84030 -138.58615 37894 ft 503 kts 208°
2026-05-08 03:42 2.77765 -138.61758 37894 ft 504 kts 208°
2026-05-08 03:43 2.71546 -138.64877 37888 ft 504 kts 208°
2026-05-08 03:43 2.65284 -138.68017 37890 ft 504 kts 208°
2026-05-08 03:44 2.59012 -138.71162 37887 ft 504 kts 208°
2026-05-08 03:44 2.52740 -138.74307 37885 ft 504 kts 208°
2026-05-08 03:45 2.46495 -138.77438 37887 ft 505 kts 208°
2026-05-08 03:45 2.40230 -138.80578 38126 ft 505 kts 208°
2026-05-08 03:45 2.37088 -138.82153 38321 ft 505 kts 208°
2026-05-08 03:46 2.33946 -138.83728 38536 ft 505 kts 208°
2026-05-08 03:46 2.30804 -138.85302 38700 ft 506 kts 208°
2026-05-08 03:46 2.27653 -138.86881 38880 ft 506 kts 208°
2026-05-08 03:46 2.24517 -138.88453 39048 ft 505 kts 208°
2026-05-08 03:47 2.21369 -138.90031 39214 ft 505 kts 208°
2026-05-08 03:47 2.18267 -138.91585 39385 ft 505 kts 208°
2026-05-08 03:47 2.15131 -138.93156 39557 ft 505 kts 208°
2026-05-08 03:47 2.11988 -138.94731 39761 ft 504 kts 208°
2026-05-08 03:48 2.08853 -138.96301 39886 ft 505 kts 208°
2026-05-08 03:48 2.02556 -138.99456 39875 ft 505 kts 208°
2026-05-08 03:49 1.96293 -139.02593 39878 ft 502 kts 208°
2026-05-08 03:49 1.90096 -139.05698 39879 ft 502 kts 208°
2026-05-08 03:50 1.83849 -139.08826 39878 ft 501 kts 208°
2026-05-08 03:50 1.77626 -139.11943 39881 ft 500 kts 208°
2026-05-08 03:51 1.71395 -139.15063 39880 ft 500 kts 208°
2026-05-08 03:51 1.65223 -139.18153 39878 ft 499 kts 208°
2026-05-08 03:52 1.59012 -139.21263 39883 ft 499 kts 208°
2026-05-08 03:52 1.52797 -139.24375 39881 ft 500 kts 208°
2026-05-08 03:53 1.46573 -139.27491 39885 ft 501 kts 208°
2026-05-08 03:53 1.40376 -139.30593 39891 ft 500 kts 208°
2026-05-08 03:54 1.34156 -139.33707 39886 ft 501 kts 208°
2026-05-08 03:54 1.27932 -139.36822 39887 ft 500 kts 208°
2026-05-08 03:55 1.21720 -139.39931 39885 ft 499 kts 208°
2026-05-08 03:55 1.15527 -139.43031 39884 ft 497 kts 208°
2026-05-08 03:56 1.09389 -139.46103 39887 ft 495 kts 208°
2026-05-08 03:56 1.03233 -139.49183 39884 ft 494 kts 208°
2026-05-08 03:57 0.97094 -139.52256 39883 ft 493 kts 208°
2026-05-08 03:57 0.90952 -139.55329 39888 ft 493 kts 208°
2026-05-08 03:58 0.84809 -139.58403 39888 ft 494 kts 208°
2026-05-08 03:58 0.78709 -139.61455 39897 ft 494 kts 208°
2026-05-08 03:59 0.72571 -139.64526 39899 ft 493 kts 208°
2026-05-08 03:59 0.66435 -139.67596 39895 ft 492 kts 208°
2026-05-08 04:00 0.60332 -139.70650 39891 ft 490 kts 208°
2026-05-08 04:00 0.54275 -139.73680 39890 ft 490 kts 208°
2026-05-08 04:01 0.48179 -139.76730 39886 ft 490 kts 208°
2026-05-08 04:01 0.42080 -139.79781 39886 ft 491 kts 208°
2026-05-08 04:02 0.35972 -139.82837 39886 ft 490 kts 209°
2026-05-08 04:02 0.29909 -139.85870 39878 ft 491 kts 209°
2026-05-08 04:03 0.23796 -139.88928 39893 ft 492 kts 209°
2026-05-08 04:03 0.14603 -139.93527 39902 ft 492 kts 209°
2026-05-08 04:04 0.08477 -139.96592 39901 ft 493 kts 209°
2026-05-08 04:04 0.02392 -139.99635 39903 ft 492 kts 209°
2026-05-08 04:05 -0.03711 -140.02687 39900 ft 490 kts 209°
2026-05-08 04:05 -0.09810 -140.05733 39900 ft 489 kts 208°
2026-05-08 04:06 -0.15902 -140.08778 39897 ft 490 kts 208°
2026-05-08 04:06 -0.22002 -140.11826 39898 ft 490 kts 208°
2026-05-08 04:07 -0.28047 -140.14847 39895 ft 489 kts 208°
2026-05-08 04:07 -0.34134 -140.17888 39898 ft 490 kts 208°
2026-05-08 04:08 -0.40222 -140.20931 39894 ft 489 kts 208°
2026-05-08 04:08 -0.46300 -140.23968 39895 ft 488 kts 208°
2026-05-08 04:09 -0.52367 -140.27000 39897 ft 488 kts 208°
2026-05-08 04:09 -0.58432 -140.30030 39894 ft 487 kts 208°
2026-05-08 04:10 -0.64451 -140.33038 39896 ft 487 kts 208°
2026-05-08 04:10 -0.70509 -140.36066 39904 ft 487 kts 208°
2026-05-08 04:11 -0.76560 -140.39090 39904 ft 485 kts 208°
2026-05-08 04:11 -0.82540 -140.42079 39899 ft 483 kts 208°
2026-05-08 04:12 -0.88541 -140.45078 39901 ft 482 kts 208°
2026-05-08 04:12 -0.94533 -140.48073 39896 ft 481 kts 208°
2026-05-08 04:13 -1.00505 -140.51058 39897 ft 480 kts 209°
2026-05-08 04:13 -1.06483 -140.54046 39903 ft 481 kts 209°
2026-05-08 04:14 -1.12426 -140.57017 39904 ft 481 kts 209°
2026-05-08 04:14 -1.18412 -140.60009 39903 ft 480 kts 209°
2026-05-08 04:15 -1.24386 -140.62996 39901 ft 480 kts 209°
2026-05-08 04:15 -1.30358 -140.65982 39898 ft 480 kts 209°
2026-05-08 04:16 -1.36308 -140.68957 39897 ft 481 kts 209°
2026-05-08 04:16 -1.42288 -140.71947 39902 ft 481 kts 209°
2026-05-08 04:17 -1.48276 -140.74941 39899 ft 481 kts 209°
2026-05-08 04:17 -1.54267 -140.77937 39904 ft 481 kts 209°
2026-05-08 04:18 -1.60257 -140.80933 39902 ft 481 kts 209°
2026-05-08 04:18 -1.66194 -140.83901 39900 ft 480 kts 209°
2026-05-08 04:19 -1.72157 -140.86884 39899 ft 479 kts 209°
2026-05-08 04:19 -1.78118 -140.89866 39894 ft 479 kts 209°
2026-05-08 04:20 -1.84065 -140.92841 39896 ft 478 kts 209°
2026-05-08 04:20 -1.90017 -140.95819 39897 ft 478 kts 209°
2026-05-08 04:21 -1.95918 -140.98771 39898 ft 478 kts 209°
2026-05-08 04:21 -2.01870 -141.01749 39900 ft 479 kts 209°
2026-05-08 04:22 -2.07838 -141.04736 39901 ft 480 kts 209°
2026-05-08 04:22 -2.13812 -141.07725 39905 ft 480 kts 209°
2026-05-08 04:23 -2.19741 -141.10693 39909 ft 480 kts 209°
2026-05-08 04:23 -2.25711 -141.13681 39907 ft 480 kts 209°
2026-05-08 04:24 -2.31674 -141.16665 39907 ft 479 kts 209°
2026-05-08 04:24 -2.37641 -141.19653 39901 ft 479 kts 209°
2026-05-08 04:25 -2.43565 -141.22619 39903 ft 480 kts 209°
2026-05-08 04:25 -2.49540 -141.25610 39906 ft 480 kts 209°
2026-05-08 04:26 -2.55501 -141.28596 39903 ft 479 kts 209°
2026-05-08 04:26 -2.61446 -141.31573 39903 ft 477 kts 210°
2026-05-08 04:27 -2.67353 -141.34532 39902 ft 478 kts 210°
2026-05-08 04:27 -2.73302 -141.37512 39903 ft 479 kts 210°
2026-05-08 04:28 -2.79253 -141.40493 39904 ft 479 kts 210°
2026-05-08 04:28 -2.85212 -141.43479 39907 ft 479 kts 210°
2026-05-08 04:29 -2.91131 -141.46445 39908 ft 479 kts 210°
2026-05-08 04:29 -2.97094 -141.49434 39909 ft 478 kts 210°
2026-05-08 04:30 -3.03046 -141.52417 39896 ft 480 kts 209°
2026-05-08 04:30 -3.09027 -141.55415 39897 ft 481 kts 209°
2026-05-08 04:31 -3.15007 -141.58413 39898 ft 480 kts 209°
2026-05-08 04:31 -3.20935 -141.61385 39898 ft 479 kts 209°
2026-05-08 04:32 -3.26890 -141.64372 39899 ft 479 kts 209°
2026-05-08 04:32 -3.32845 -141.67359 39898 ft 479 kts 209°
2026-05-08 04:33 -3.38807 -141.70349 39901 ft 479 kts 209°
2026-05-08 04:33 -3.44770 -141.73341 39902 ft 479 kts 209°
2026-05-08 04:34 -3.50682 -141.76307 39902 ft 478 kts 209°
2026-05-08 04:34 -3.56625 -141.79289 39903 ft 477 kts 209°
2026-05-08 04:35 -3.62555 -141.82265 39902 ft 477 kts 209°
2026-05-08 04:35 -3.68504 -141.85252 39902 ft 477 kts 209°
2026-05-08 04:36 -3.74425 -141.88224 39900 ft 476 kts 209°
2026-05-08 04:36 -3.80356 -141.91203 39903 ft 477 kts 209°
2026-05-08 04:37 -3.86258 -141.94167 39908 ft 478 kts 209°
2026-05-08 04:37 -3.92204 -141.97154 39913 ft 479 kts 209°
2026-05-08 04:38 -3.98159 -142.00145 39916 ft 478 kts 209°
2026-05-08 04:38 -4.04089 -142.03124 39911 ft 476 kts 209°
2026-05-08 04:39 -4.10000 -142.06094 39907 ft 475 kts 209°
2026-05-08 04:39 -4.15864 -142.09042 39912 ft 474 kts 209°
2026-05-08 04:40 -4.21757 -142.12004 39908 ft 474 kts 209°
2026-05-08 04:40 -4.27653 -142.14969 39914 ft 475 kts 209°
2026-05-08 04:41 -4.33562 -142.17940 39918 ft 476 kts 209°
2026-05-08 04:41 -4.39434 -142.20894 39918 ft 475 kts 209°
2026-05-08 04:42 -4.45331 -142.23860 39919 ft 475 kts 209°
2026-05-08 04:42 -4.51235 -142.26830 39919 ft 474 kts 209°
2026-05-08 04:43 -4.57137 -142.29801 39924 ft 474 kts 209°
2026-05-08 04:43 -4.62991 -142.32747 39919 ft 474 kts 209°
2026-05-08 04:44 -4.68880 -142.35712 39919 ft 474 kts 209°
2026-05-08 04:44 -4.74777 -142.38681 39922 ft 473 kts 209°
2026-05-08 04:45 -4.80663 -142.41645 39922 ft 473 kts 209°
2026-05-08 04:45 -4.86533 -142.44601 39920 ft 472 kts 209°
2026-05-08 04:46 -4.92356 -142.47535 39922 ft 470 kts 209°
2026-05-08 04:46 -4.98190 -142.50475 39922 ft 469 kts 209°
2026-05-08 04:47 -5.04008 -142.53410 39916 ft 468 kts 209°
2026-05-08 04:47 -5.09821 -142.56346 39919 ft 467 kts 209°
2026-05-08 04:48 -5.15629 -142.59278 39917 ft 468 kts 209°
2026-05-08 04:48 -5.21406 -142.62195 39917 ft 468 kts 209°
2026-05-08 04:49 -5.27227 -142.65136 39919 ft 469 kts 209°
2026-05-08 04:49 -5.33041 -142.68073 39925 ft 467 kts 209°
2026-05-08 04:50 -5.38847 -142.71007 39921 ft 467 kts 209°
2026-05-08 04:50 -5.44654 -142.73942 39925 ft 467 kts 209°
2026-05-08 04:51 -5.50434 -142.76865 39925 ft 468 kts 209°
2026-05-08 04:51 -5.56238 -142.79799 39923 ft 467 kts 209°
2026-05-08 04:52 -5.62045 -142.82736 39926 ft 468 kts 209°
2026-05-08 04:52 -5.67865 -142.85681 39921 ft 467 kts 209°
2026-05-08 04:53 -5.73624 -142.88595 39923 ft 466 kts 209°
2026-05-08 04:53 -5.79407 -142.91522 39924 ft 465 kts 209°
2026-05-08 04:54 -5.85180 -142.94445 39921 ft 465 kts 209°
2026-05-08 04:54 -5.90953 -142.97368 39922 ft 465 kts 209°
2026-05-08 04:55 -5.96730 -143.00294 39924 ft 464 kts 209°
2026-05-08 04:55 -6.02467 -143.03200 39924 ft 465 kts 209°
2026-05-08 04:56 -6.08239 -143.06125 39925 ft 464 kts 209°
2026-05-08 04:56 -6.14004 -143.09047 39925 ft 464 kts 209°
2026-05-08 04:57 -6.19771 -143.11971 39930 ft 464 kts 209°
2026-05-08 04:57 -6.25493 -143.14872 39930 ft 464 kts 209°
2026-05-08 04:58 -6.31251 -143.17793 39931 ft 463 kts 209°
2026-05-08 04:58 -6.37007 -143.20713 39936 ft 463 kts 209°
2026-05-08 04:59 -6.42750 -143.23628 39933 ft 463 kts 209°
2026-05-08 04:59 -6.48475 -143.26534 39930 ft 464 kts 209°
2026-05-08 05:00 -6.54233 -143.29457 39931 ft 464 kts 209°
2026-05-08 05:00 -6.59985 -143.32378 39936 ft 463 kts 209°
2026-05-08 05:01 -6.65725 -143.35295 39937 ft 462 kts 209°
2026-05-08 05:01 -6.71462 -143.38210 39930 ft 462 kts 209°
2026-05-08 05:02 -6.77164 -143.41108 39937 ft 462 kts 209°
2026-05-08 05:02 -6.82903 -143.44026 39933 ft 462 kts 209°
2026-05-08 05:03 -6.88631 -143.46939 39932 ft 462 kts 209°
2026-05-08 05:03 -6.94384 -143.49865 39934 ft 463 kts 209°
2026-05-08 05:04 -7.00097 -143.52772 39932 ft 463 kts 209°
2026-05-08 05:04 -7.05832 -143.55691 39932 ft 461 kts 209°
2026-05-08 05:05 -7.11557 -143.58605 39932 ft 461 kts 209°
2026-05-08 05:05 -7.17280 -143.61520 39931 ft 461 kts 209°
2026-05-08 05:06 -7.22996 -143.64432 39933 ft 461 kts 209°
2026-05-08 05:06 -7.28732 -143.67355 39936 ft 461 kts 209°
2026-05-08 05:07 -7.34421 -143.70254 39939 ft 462 kts 209°
2026-05-08 05:07 -7.40159 -143.73179 39935 ft 462 kts 209°
2026-05-08 05:08 -7.45899 -143.76107 39940 ft 462 kts 209°
2026-05-08 05:08 -7.51624 -143.79027 39944 ft 462 kts 209°
2026-05-08 05:09 -7.57321 -143.81934 39942 ft 463 kts 209°
2026-05-08 05:09 -7.63078 -143.84873 39942 ft 463 kts 209°
2026-05-08 05:10 -7.71694 -143.89273 39941 ft 463 kts 209°
2026-05-08 05:11 -7.77412 -143.92194 39947 ft 464 kts 209°
2026-05-08 05:11 -7.83183 -143.95143 39947 ft 465 kts 209°
2026-05-08 05:12 -7.88946 -143.98088 39945 ft 464 kts 209°
2026-05-08 05:12 -7.94710 -144.01036 39948 ft 464 kts 209°
2026-05-08 05:13 -8.00468 -144.03980 39950 ft 464 kts 209°
2026-05-08 05:13 -8.06195 -144.06911 39949 ft 465 kts 209°
2026-05-08 05:14 -8.11969 -144.09865 39951 ft 465 kts 209°
2026-05-08 05:14 -8.17730 -144.12815 39947 ft 465 kts 209°
2026-05-08 05:15 -8.23502 -144.15771 39952 ft 465 kts 209°
2026-05-08 05:15 -8.29235 -144.18708 39952 ft 465 kts 209°
2026-05-08 05:16 -8.34999 -144.21662 39952 ft 464 kts 209°
2026-05-08 05:16 -8.40762 -144.24616 39951 ft 464 kts 209°
2026-05-08 05:17 -8.46520 -144.27569 39954 ft 464 kts 209°
2026-05-08 05:17 -8.52283 -144.30525 39949 ft 464 kts 209°
2026-05-08 05:18 -8.57993 -144.33456 39950 ft 465 kts 209°
2026-05-08 05:18 -8.63764 -144.36418 39955 ft 465 kts 209°
2026-05-08 05:19 -8.69530 -144.39379 39951 ft 465 kts 209°
2026-05-08 05:19 -8.75287 -144.42336 39956 ft 465 kts 209°
2026-05-08 05:20 -8.81013 -144.45279 39953 ft 464 kts 209°
2026-05-08 05:20 -8.86777 -144.48242 39957 ft 465 kts 209°
2026-05-08 05:21 -8.92535 -144.51202 39953 ft 464 kts 209°
2026-05-08 05:21 -8.98295 -144.54165 39954 ft 465 kts 209°
2026-05-08 05:22 -9.04064 -144.57134 39960 ft 466 kts 209°
2026-05-08 05:22 -9.09846 -144.60111 39955 ft 466 kts 209°
2026-05-08 05:23 -9.15588 -144.63067 39957 ft 466 kts 209°
2026-05-08 05:23 -9.21372 -144.66047 39957 ft 466 kts 209°
2026-05-08 05:24 -9.27151 -144.69025 39961 ft 466 kts 209°
2026-05-08 05:24 -9.32932 -144.72006 39957 ft 466 kts 209°
2026-05-08 05:25 -9.38719 -144.74990 39959 ft 467 kts 209°
2026-05-08 05:25 -9.44483 -144.77964 39961 ft 468 kts 209°
2026-05-08 05:26 -9.50285 -144.80959 39961 ft 467 kts 209°
2026-05-08 05:26 -9.56081 -144.83952 39966 ft 468 kts 209°
2026-05-08 05:27 -9.61883 -144.86948 39964 ft 468 kts 209°
2026-05-08 05:27 -9.67653 -144.89929 39966 ft 468 kts 209°
2026-05-08 05:28 -9.73461 -144.92932 39968 ft 469 kts 209°
2026-05-08 05:28 -9.79278 -144.95940 39960 ft 469 kts 209°
2026-05-08 05:29 -9.85091 -144.98947 39964 ft 469 kts 208°
2026-05-08 05:29 -9.89929 -145.01451 39965 ft 470 kts 208°
2026-05-08 05:30 -9.96698 -145.04955 39967 ft 470 kts 208°
2026-05-08 05:30 -10.02528 -145.07973 39965 ft 471 kts 208°
2026-05-08 05:31 -10.07386 -145.10477 39970 ft 471 kts 208°
2026-05-08 05:31 -10.13231 -145.13497 39969 ft 471 kts 208°
2026-05-08 05:32 -10.20015 -145.17002 39967 ft 471 kts 208°
2026-05-08 05:32 -10.25856 -145.20021 39968 ft 471 kts 208°
2026-05-08 05:33 -10.30718 -145.22535 39968 ft 472 kts 208°
2026-05-08 05:33 -10.36572 -145.25563 39967 ft 472 kts 208°
2026-05-08 05:34 -10.43363 -145.29077 39971 ft 471 kts 208°
2026-05-08 05:34 -10.48220 -145.31592 39966 ft 471 kts 208°
2026-05-08 05:35 -10.54057 -145.34616 39965 ft 471 kts 208°
2026-05-08 05:35 -10.59912 -145.37650 39970 ft 473 kts 208°
2026-05-08 05:36 -10.65769 -145.40686 39970 ft 473 kts 208°
2026-05-08 05:36 -10.71627 -145.43724 39971 ft 472 kts 208°
2026-05-08 05:37 -10.77433 -145.46736 39971 ft 472 kts 208°
2026-05-08 05:37 -10.83274 -145.49768 39955 ft 471 kts 208°
2026-05-08 05:38 -10.89119 -145.52803 39962 ft 472 kts 208°
2026-05-08 05:38 -10.94961 -145.55839 39961 ft 472 kts 208°
2026-05-08 05:39 -11.00811 -145.58879 39962 ft 471 kts 208°
2026-05-08 05:39 -11.06611 -145.61895 39961 ft 472 kts 208°
2026-05-08 05:40 -11.12453 -145.64934 39969 ft 471 kts 208°
2026-05-08 05:40 -11.18298 -145.67977 39963 ft 472 kts 208°
2026-05-08 05:41 -11.24150 -145.71024 39967 ft 472 kts 208°
2026-05-08 05:41 -11.29963 -145.74052 39966 ft 473 kts 208°
2026-05-08 05:42 -11.35816 -145.77102 39982 ft 473 kts 208°
2026-05-08 05:42 -11.41682 -145.80161 39975 ft 473 kts 208°
2026-05-08 05:43 -11.47538 -145.83216 39971 ft 473 kts 208°
2026-05-08 05:43 -11.53359 -145.86254 39975 ft 473 kts 208°
2026-05-08 05:44 -11.59118 -145.89261 39973 ft 472 kts 208°
2026-05-08 05:44 -11.64953 -145.92310 39966 ft 464 kts 208°
2026-05-08 05:45 -11.70607 -145.95263 39964 ft 457 kts 208°
2026-05-08 05:45 -11.76285 -145.98234 39975 ft 466 kts 208°
2026-05-08 05:46 -11.82107 -146.01279 39987 ft 474 kts 208°
2026-05-08 05:46 -11.87984 -146.04355 39988 ft 475 kts 208°
2026-05-08 05:47 -11.93863 -146.07433 39978 ft 474 kts 208°
2026-05-08 05:47 -11.99696 -146.10489 39979 ft 474 kts 208°
2026-05-08 05:48 -12.05556 -146.13560 39982 ft 474 kts 208°
2026-05-08 05:48 -12.11423 -146.16637 39984 ft 474 kts 208°
2026-05-08 05:49 -12.17297 -146.19719 39978 ft 475 kts 208°
2026-05-08 05:49 -12.23126 -146.22779 39981 ft 474 kts 208°
2026-05-08 05:50 -12.28983 -146.25855 39985 ft 474 kts 208°
2026-05-08 05:50 -12.34854 -146.28940 39986 ft 474 kts 208°
2026-05-08 05:51 -12.40722 -146.32025 39985 ft 475 kts 208°
2026-05-08 05:51 -12.46559 -146.35095 39992 ft 474 kts 208°
2026-05-08 05:52 -12.52429 -146.38185 39988 ft 474 kts 208°
2026-05-08 05:52 -12.58296 -146.41274 39989 ft 475 kts 208°
2026-05-08 05:53 -12.64171 -146.44369 39992 ft 475 kts 208°
2026-05-08 05:53 -12.70002 -146.47442 39992 ft 475 kts 208°
2026-05-08 05:54 -12.75876 -146.50540 39993 ft 474 kts 208°
2026-05-08 05:54 -12.81739 -146.53634 39995 ft 474 kts 208°
2026-05-08 05:55 -12.87613 -146.56734 39993 ft 474 kts 208°
2026-05-08 05:55 -12.93433 -146.59809 39995 ft 474 kts 208°
2026-05-08 05:56 -12.99297 -146.62907 39999 ft 474 kts 208°
2026-05-08 05:56 -13.05157 -146.66006 40000 ft 474 kts 208°
2026-05-08 05:57 -13.11025 -146.69110 40000 ft 474 kts 208°
2026-05-08 05:57 -13.16894 -146.72217 40004 ft 475 kts 208°
2026-05-08 05:58 -13.22720 -146.75302 40004 ft 474 kts 208°
2026-05-08 05:58 -13.28585 -146.78411 40006 ft 474 kts 208°
2026-05-08 05:59 -13.34449 -146.81519 40005 ft 474 kts 208°
2026-05-08 05:59 -13.40307 -146.84627 40004 ft 474 kts 208°
2026-05-08 06:00 -13.46129 -146.87717 40007 ft 474 kts 208°
2026-05-08 06:00 -13.51982 -146.90826 40008 ft 473 kts 208°
2026-05-08 06:01 -13.57833 -146.93934 40007 ft 473 kts 208°
2026-05-08 06:01 -13.63682 -146.97044 40008 ft 473 kts 208°
2026-05-08 06:02 -13.69484 -147.00130 40008 ft 472 kts 208°
2026-05-08 06:02 -13.75315 -147.03235 40009 ft 472 kts 208°
2026-05-08 06:03 -13.81144 -147.06339 40004 ft 472 kts 208°
2026-05-08 06:03 -13.86936 -147.09425 40007 ft 472 kts 208°
2026-05-08 06:04 -13.92769 -147.12535 40008 ft 472 kts 208°
2026-05-08 06:04 -13.98603 -147.15647 40014 ft 472 kts 208°
2026-05-08 06:05 -14.04436 -147.18760 40012 ft 472 kts 208°
2026-05-08 06:05 -14.10264 -147.21873 40015 ft 473 kts 208°
2026-05-08 06:06 -14.16066 -147.24974 40015 ft 473 kts 208°
2026-05-08 06:06 -14.21904 -147.28095 40019 ft 473 kts 208°
2026-05-08 06:07 -14.27743 -147.31219 40020 ft 473 kts 208°
2026-05-08 06:07 -14.33584 -147.34346 40020 ft 473 kts 208°
2026-05-08 06:08 -14.39376 -147.37449 40022 ft 473 kts 208°
2026-05-08 06:08 -14.45223 -147.40582 40026 ft 473 kts 208°
2026-05-08 06:09 -14.51069 -147.43718 40023 ft 473 kts 208°
2026-05-08 06:09 -14.56911 -147.46852 40029 ft 473 kts 208°
2026-05-08 06:10 -14.62710 -147.49966 40030 ft 473 kts 208°
2026-05-08 06:10 -14.68554 -147.53106 40027 ft 473 kts 208°
2026-05-08 06:11 -14.74397 -147.56247 40030 ft 473 kts 208°
2026-05-08 06:11 -14.80237 -147.59389 40030 ft 473 kts 208°
2026-05-08 06:12 -14.85904 -147.62438 40027 ft 474 kts 208°
2026-05-08 06:12 -14.91741 -147.65582 40026 ft 473 kts 208°
2026-05-08 06:13 -14.97338 -147.69110 40018 ft 472 kts 217°
2026-05-08 06:13 -15.02639 -147.73137 40024 ft 473 kts 217°
2026-05-08 06:14 -15.07903 -147.77149 40029 ft 473 kts 217°
2026-05-08 06:14 -15.13194 -147.81179 40030 ft 472 kts 217°
2026-05-08 06:15 -15.18483 -147.85212 40030 ft 472 kts 217°
2026-05-08 06:15 -15.23779 -147.89251 40030 ft 472 kts 217°
2026-05-08 06:16 -15.29029 -147.93259 40031 ft 472 kts 217°
2026-05-08 06:16 -15.34305 -147.97289 40030 ft 472 kts 217°
2026-05-08 06:17 -15.42228 -148.03346 40029 ft 471 kts 217°
2026-05-08 06:17 -15.47455 -148.07344 40027 ft 472 kts 217°
2026-05-08 06:18 -15.52729 -148.11382 40029 ft 471 kts 217°
2026-05-08 06:18 -15.58010 -148.15427 40027 ft 471 kts 217°
2026-05-08 06:19 -15.63282 -148.19469 40029 ft 472 kts 217°
2026-05-08 06:19 -15.68527 -148.23492 40028 ft 472 kts 217°
2026-05-08 06:20 -15.73808 -148.27545 40028 ft 472 kts 217°
2026-05-08 06:20 -15.78994 -148.31528 40002 ft 455 kts 217°
2026-05-08 06:21 -15.83983 -148.35362 39951 ft 439 kts 217°
2026-05-08 06:21 -15.88781 -148.39052 39885 ft 425 kts 217°
2026-05-08 06:22 -15.91235 -148.40708 39879 ft 417 kts 206°
2026-05-08 06:22 -15.93876 -148.41888 39881 ft 410 kts 203°
2026-05-08 06:22 -15.96443 -148.42958 39788 ft 389 kts 202°
2026-05-08 06:22 -15.98934 -148.43978 39529 ft 389 kts 202°
2026-05-08 06:23 -16.01507 -148.45043 39074 ft 407 kts 202°
2026-05-08 06:23 -16.04185 -148.46160 38478 ft 420 kts 202°
2026-05-08 06:23 -16.06912 -148.47292 37823 ft 424 kts 202°
2026-05-08 06:23 -16.09621 -148.48414 37206 ft 426 kts 202°
2026-05-08 06:24 -16.12378 -148.49558 36579 ft 427 kts 202°
2026-05-08 06:24 -16.15140 -148.50706 35973 ft 429 kts 202°
2026-05-08 06:24 -16.17916 -148.51861 35373 ft 430 kts 202°
2026-05-08 06:24 -16.20694 -148.53014 34808 ft 431 kts 202°
2026-05-08 06:25 -16.23479 -148.54172 34242 ft 431 kts 202°
2026-05-08 06:25 -16.26198 -148.55301 33757 ft 407 kts 203°
2026-05-08 06:25 -16.28759 -148.56366 33631 ft 389 kts 203°
2026-05-08 06:25 -16.31250 -148.57403 33284 ft 385 kts 203°
2026-05-08 06:26 -16.33709 -148.58428 32763 ft 386 kts 203°
2026-05-08 06:26 -16.36209 -148.59470 32228 ft 387 kts 203°
2026-05-08 06:26 -16.38710 -148.60511 31697 ft 388 kts 203°
2026-05-08 06:26 -16.41224 -148.61558 31162 ft 390 kts 204°
2026-05-08 06:27 -16.43747 -148.62609 30607 ft 392 kts 204°
2026-05-08 06:27 -16.46281 -148.63666 30080 ft 393 kts 204°
2026-05-08 06:27 -16.48829 -148.64728 29460 ft 394 kts 204°
2026-05-08 06:27 -16.51375 -148.65790 28848 ft 395 kts 203°
2026-05-08 06:28 -16.53923 -148.66852 28229 ft 395 kts 203°
2026-05-08 06:28 -16.56477 -148.67918 27646 ft 396 kts 203°
2026-05-08 06:28 -16.59035 -148.68987 27009 ft 396 kts 203°
2026-05-08 06:28 -16.61567 -148.70044 26385 ft 397 kts 202°
2026-05-08 06:29 -16.64134 -148.71116 25727 ft 399 kts 202°
2026-05-08 06:29 -16.66715 -148.72194 25100 ft 400 kts 202°
2026-05-08 06:29 -16.69303 -148.73275 24473 ft 401 kts 202°
2026-05-08 06:29 -16.71897 -148.74360 23808 ft 403 kts 202°
2026-05-08 06:30 -16.74502 -148.75449 23036 ft 404 kts 201°
2026-05-08 06:30 -16.77108 -148.76539 22248 ft 405 kts 201°
2026-05-08 06:30 -16.79695 -148.77622 21468 ft 406 kts 201°
2026-05-08 06:30 -16.82315 -148.78718 20656 ft 406 kts 201°
2026-05-08 06:31 -16.84943 -148.79818 19845 ft 407 kts 201°
2026-05-08 06:31 -16.87575 -148.80921 19044 ft 408 kts 201°
2026-05-08 06:31 -16.90207 -148.82024 18307 ft 407 kts 200°
2026-05-08 06:31 -16.92813 -148.83114 17630 ft 400 kts 200°
2026-05-08 06:32 -16.95384 -148.84192 16884 ft 396 kts 200°
2026-05-08 06:32 -16.97928 -148.85258 16180 ft 392 kts 200°
2026-05-08 06:32 -17.00449 -148.86316 15478 ft 388 kts 200°
2026-05-08 06:32 -17.02905 -148.87347 14803 ft 384 kts 200°
2026-05-08 06:33 -17.05326 -148.88482 14056 ft 383 kts 210°
2026-05-08 06:33 -17.07392 -148.90235 13298 ft 383 kts 224°
2026-05-08 06:33 -17.09000 -148.92434 12511 ft 381 kts 232°
2026-05-08 06:33 -17.10535 -148.94683 11773 ft 378 kts 232°
2026-05-08 06:34 -17.12040 -148.96919 11048 ft 374 kts 232°
2026-05-08 06:34 -17.13535 -148.99131 10327 ft 371 kts 232°
2026-05-08 06:34 -17.15028 -149.01324 9590 ft 368 kts 232°
2026-05-08 06:34 -17.16502 -149.03492 8812 ft 365 kts 232°
2026-05-08 06:35 -17.17942 -149.05619 8075 ft 362 kts 232°
2026-05-08 06:35 -17.19386 -149.07756 7317 ft 359 kts 232°
2026-05-08 06:35 -17.20832 -149.09889 6572 ft 356 kts 233°
2026-05-08 06:35 -17.22252 -149.11986 6068 ft 349 kts 233°
2026-05-08 06:36 -17.23641 -149.14040 6029 ft 348 kts 232°
2026-05-08 06:36 -17.25058 -149.16132 6030 ft 354 kts 232°
2026-05-08 06:36 -17.26469 -149.18217 6026 ft 356 kts 232°
2026-05-08 06:36 -17.27891 -149.20323 6025 ft 355 kts 232°
2026-05-08 06:37 -17.29290 -149.22398 5714 ft 331 kts 232°
2026-05-08 06:37 -17.30559 -149.24284 4967 ft 304 kts 232°
2026-05-08 06:37 -17.31696 -149.25966 4398 ft 280 kts 231°
2026-05-08 06:37 -17.32772 -149.27560 3972 ft 257 kts 231°
2026-05-08 06:38 -17.33757 -149.29017 3703 ft 234 kts 230°
2026-05-08 06:38 -17.34663 -149.30355 3272 ft 223 kts 230°
2026-05-08 06:38 -17.35528 -149.31642 3009 ft 206 kts 229°
2026-05-08 06:38 -17.36349 -149.32857 3011 ft 211 kts 229°
2026-05-08 06:39 -17.37182 -149.34087 3008 ft 202 kts 229°
2026-05-08 06:39 -17.37953 -149.35241 3000 ft 188 kts 228°
2026-05-08 06:39 -17.38691 -149.36339 2991 ft 182 kts 228°
2026-05-08 06:39 -17.39425 -149.37432 2990 ft 185 kts 230°
2026-05-08 06:40 -17.40107 -149.38581 2999 ft 186 kts 233°
2026-05-08 06:40 -17.40823 -149.39709 3001 ft 185 kts 230°
2026-05-08 06:40 -17.41578 -149.40799 3000 ft 185 kts 229°
2026-05-08 06:40 -17.42330 -149.41877 3003 ft 185 kts 229°
2026-05-08 06:41 -17.43088 -149.42966 2999 ft 186 kts 228°
2026-05-08 06:41 -17.43853 -149.44067 3001 ft 187 kts 229°
2026-05-08 06:41 -17.44599 -149.45150 3012 ft 179 kts 230°
2026-05-08 06:41 -17.45356 -149.46244 3022 ft 189 kts 229°
2026-05-08 06:42 -17.46119 -149.47343 3003 ft 188 kts 229°
2026-05-08 06:42 -17.46892 -149.48459 2733 ft 187 kts 229°
2026-05-08 06:42 -17.47652 -149.49560 2449 ft 185 kts 229°
2026-05-08 06:42 -17.48386 -149.50629 2198 ft 180 kts 227°
2026-05-08 06:43 -17.49116 -149.51677 1946 ft 178 kts 228°
2026-05-08 06:43 -17.49837 -149.52720 1688 ft 177 kts 227°
2026-05-08 06:43 -17.50584 -149.53789 1433 ft 179 kts 229°
2026-05-08 06:43 -17.51254 -149.54783 1192 ft 161 kts 227°
2026-05-08 06:44 -17.51927 -149.55736 979 ft 162 kts 226°
2026-05-08 06:44 -17.52570 -149.56659 742 ft 153 kts 230°
2026-05-08 06:44 -17.53174 -149.57539 522 ft 147 kts 232°
2026-05-08 06:44 -17.53795 -149.58439 330 ft 161 kts 232°
2026-05-08 06:45 -17.54440 -149.59368 88 ft 160 kts 230°
2026-05-08 06:45 -17.55042 -149.60258 19 ft 126 kts 234°
2026-05-08 06:45 -17.55408 -149.60789 23 ft 58 kts 234°
2026-05-08 06:45 -17.55611 -149.61080 20 ft 42 kts 233°
2026-05-08 06:46 -17.55666 -149.61157 20 ft 0 kts 234°
2026-05-08 06:46 -17.55668 -149.61158 20 ft 1 kts 223°
2026-05-08 06:46 -17.55674 -149.61159 20 ft 1 kts 189°
2026-05-08 06:47 -17.55678 -149.61157 20 ft 1 kts 164°
2026-05-08 06:47 -17.55687 -149.61146 20 ft 3 kts 129°
2026-05-08 06:47 -17.55712 -149.61114 21 ft 7 kts 131°
2026-05-08 06:47 -17.55748 -149.61082 20 ft 7 kts 134°
2026-05-08 06:48 -17.55759 -149.61043 19 ft 5 kts 84°
2026-05-08 06:48 -17.55747 -149.61010 19 ft 5 kts 60°
2026-05-08 06:48 -17.55726 -149.60967 19 ft 6 kts 76°
2026-05-08 06:48 -17.55734 -149.60935 19 ft 3 kts 123°
2026-05-08 06:49 -17.55749 -149.60922 19 ft 3 kts 144°
2026-05-08 06:49 -17.55767 -149.60909 19 ft 0 kts 144°